User: anonymous   Login
Location: Poughquag
(41.6090°N, 73.6820°W)
Time: 15:02:08
(UTC-04:00)
Language:

SR - Orbit

View from above orbital plane
View from above orbital plane
View from above satellite
View from above satellite

Ground track
Ground track

The orbit data is extracted from the following two-line orbital elements,

1    46U 60007B   20099.55803307 +.00000026 +00000-0 +28282-4 0  9998
2    46 066.6900 235.3619 0210748 185.3700 174.5150 14.49285031128982
Epoch (UTC): 08 April 2020 13:23:34
Eccentricity: 0.0210748
inclination: 66.6900°
perigee height: 578 km
apogee height: 878 km
right ascension of ascending node: 235.3619°
argument of perigee: 185.3700°
revolutions per day: 14.49285031
mean anomaly at epoch: 174.5150°
orbit number at epoch: 12898

The dashed part of the orbit path shows where the satellite is in the earth's shadow,  

DLR